Regional Weather Roundup
Issued by NWS

Home | Current Version | Previous Version | Text Only | Print | Product List | Glossary On
Versions: 1 2 3 4 5 6 7 8 9 10 11 12 13 14 15 16 17 18 19 20 21 22 23 24 25 26 27 28 29 30 31 32 33 34 35 36 37 38 39 40 41 42 43 44 45 46 47 48 49 50
000
ASUS44 KBMX 230910
RWRAL

ALABAMA REGIONAL WEATHER ROUNDUP
NATIONAL WEATHER SERVICE BIRMINGHAM AL
300 AM CST MON JAN 23 2017

NOTE: "FAIR" INDICATES FEW OR NO CLOUDS BELOW 12,000 FEET
WITH NO SIGNIFICANT WEATHER AND/OR OBSTRUCTIONS TO VISIBILITY.

THE REMARK "TC" DENOTES TEMPERATURE IN DEGREES CELSIUS.

ALZ001>011-014-016>018-020-231000-
NORTH ALABAMA

CITY           SKY/WX    TMP DP  RH WIND       PRES   REMARKS
MUSCLE SHOALS  CLOUDY    58  50  75 NW18      29.39R
HUNTSVILLE     LGT RAIN  57  53  86 NW21G30   29.31R
DECATUR        CLOUDY    56  53  90 NW21G26   29.33R
HALEYVILLE     LGT RAIN  54  52  93 NW17G24   29.40R
GADSDEN        CLOUDY    56  52  86 NW13      29.25R
$$

ALZ012-013-022-023-030>036-040>044-231000-
WEST CENTRAL ALABAMA

CITY           SKY/WX    TMP DP  RH WIND       PRES   REMARKS
TUSCALOOSA     CLOUDY    57  54  89 W13G21    29.40R
$$

ALZ015-024>027-033>036-040>044-231000-
CENTRAL ALABAMA

CITY           SKY/WX    TMP DP  RH WIND       PRES   REMARKS
BIRMINGHAM     CLOUDY    55  53  93 W16G23    29.33R
MONTGOMERY     CLOUDY    54  49  83 W16G24    29.35S
SHELBY CO ARPT LGT RAIN  55  54  96 NW13G20   29.32R
MAXWELL AFB    CLOUDY    54  52  94 W9G17     29.33
GREENVILLE     LGT RAIN  53  50  89 W12G23    29.37S FOG
$$

ALZ019-021-028-029-037-038-045>048-231000-
EAST CENTRAL ALABAMA

CITY           SKY/WX    TMP DP  RH WIND       PRES   REMARKS
ANNISTON       CLOUDY    52  51  97 W10       29.24R
ALEXANDER CITY CLOUDY    55  53  94 W12G20    29.28R
AUBURN         LGT RAIN  50  49  96 SW14G21   29.27F FOG
$$

ALZ051>064-231000-
SOUTHWEST ALABAMA

CITY           SKY/WX    TMP DP  RH WIND       PRES   REMARKS
MOBILE         CLOUDY    57  51  80 W13G22    29.54R
BROOKLEY FIELD CLOUDY    58  52  80 W14G21    29.54R
EVERGREEN      CLOUDY    53  51  93 W8        29.43S
$$

ALZ049-050-065>069-231000-
SOUTHEAST ALABAMA

CITY           SKY/WX    TMP DP  RH WIND       PRES   REMARKS
DOTHAN         MOCLDY    52  47  83 W16G23    29.40F
OZARK          CLOUDY    54  48  82 W16       29.38F
TROY           LGT RAIN  51  50  96 W10G20    29.36S FOG
EUFAULA        CLOUDY    54  47  77 SW8G20    29.30F
$$



USA.gov is the U.S. government's official web portal to all federal, state and local government web resources and services.